Weather History for KFGN - January, 2013

Change the Weather History Date:

Wednesday, January 30, 2013

  Actual Average Record
Temperature  
Mean Temperature 2 °F -  
Max Temperature 6 °F 13 °F 35 °F (1999)
Min Temperature -2 °F 0 °F -31 °F (2004)
Degree Days  
Heating Degree Days 63    
Moisture  
Dew Point -1 °F    
Average Humidity 81    
Maximum Humidity 85    
Minimum Humidity 72    
Precipitation  
Precipitation 0.00 in - - ()
Sea Level Pressure  
Sea Level Pressure 29.80 in    
Wind  
Wind Speed 16 mph (NW)    
Max Wind Speed 20 mph    
Max Gust Speed -    
Visibility 7 miles    
Events Snow    
Averages and records for this station are not official NWS values.
T = Trace of Precipitation, MM = Missing Value Source: NWS Daily Summary

Daily Weather History Graph

Daily Weather History Graph

Search for Another Location

Airport or City:

Trip Planner

Search our weather history database for the weather conditions in past years. The results will help you decide how hot, cold, wet, or windy it might be!

Date:

Astronomy

Jan. 30, 2013 Rise Set
Actual Time 7:53 AM CST 5:13 PM CST
Civil Twilight 7:18 AM CST 5:47 PM CST
Nautical Twilight 6:40 AM CST 6:26 PM CST
Astronomical Twilight 6:03 AM CST 7:03 PM CST
Moon 9:40 PM CST (1/30) 8:57 AM CST (1/30)
Length of Visible Light 10h 28m
Length of Day
9h 19m
Waning Gibbous, 87% of the Moon is Illuminated
Jan 30
Waning Gibbous
Feb 3
Last Quarter
Feb 10
New
Feb 17
First Quarter
Feb 25
Full

Hourly Weather History & Observations

Time (CST) Temp. Windchill Dew Point Humidity Pressure Visibility Wind Dir Wind Speed Gust Speed Precip Events Conditions
12:13 AM 6.8 °F -12.9 °F 1.4 °F 79% 29.86 in 10.0 mi NNW 19.6 mph - N/A   Overcast
12:33 AM 5.0 °F -15.2 °F 1.4 °F 85% 29.88 in 10.0 mi NW 19.6 mph - N/A   Overcast
12:53 AM 3.2 °F -15.9 °F -0.4 °F 85% 29.86 in 10.0 mi NW 16.1 mph - N/A   Overcast
1:13 AM 3.2 °F -16.5 °F -0.4 °F 85% 29.85 in 10.0 mi NNW 17.3 mph - N/A   Overcast
1:34 AM 3.2 °F -15.3 °F -0.4 °F 85% 29.84 in 10.0 mi NNW 15.0 mph - N/A   Overcast
1:53 AM 3.2 °F -17.6 °F -0.4 °F 85% 29.84 in 10.0 mi NNW 19.6 mph - N/A   Overcast
2:13 AM 3.2 °F -17.6 °F -0.4 °F 85% 29.83 in 10.0 mi NNW 19.6 mph - N/A   Overcast
2:34 AM 3.2 °F -17.1 °F -0.4 °F 85% 29.83 in 10.0 mi NNW 18.4 mph - N/A   Overcast
2:53 AM 3.2 °F -17.6 °F -0.4 °F 85% 29.82 in 10.0 mi NNW 19.6 mph - N/A   Overcast
3:13 AM 3.2 °F -17.6 °F -2.2 °F 78% 29.82 in 10.0 mi NNW 19.6 mph - N/A   Overcast
3:34 AM 3.2 °F -16.5 °F -2.2 °F 78% 29.83 in 10.0 mi NW 17.3 mph - N/A   Overcast
3:53 AM 1.4 °F -17.6 °F -2.2 °F 85% 29.82 in 10.0 mi NNW 15.0 mph - N/A   Overcast
4:13 AM 1.4 °F -19.9 °F -2.2 °F 85% 29.82 in 10.0 mi NNW 19.6 mph - N/A   Overcast
4:34 AM 1.4 °F -18.8 °F -2.2 °F 85% 29.82 in 10.0 mi NW 17.3 mph - N/A   Overcast
4:53 AM 1.4 °F -18.2 °F -2.2 °F 85% 29.82 in 10.0 mi NW 16.1 mph - N/A   Overcast
5:13 AM 1.4 °F -16.9 °F -2.2 °F 85% 29.83 in 10.0 mi NNW 13.8 mph - N/A   Overcast
5:34 AM 1.4 °F -14.5 °F -2.2 °F 85% 29.84 in 10.0 mi NNW 10.4 mph - N/A   Overcast
5:53 AM 1.4 °F -16.9 °F -2.2 °F 85% 29.85 in 10.0 mi NNW 13.8 mph - N/A   Overcast
6:14 AM 1.4 °F -14.5 °F -2.2 °F 85% 29.85 in 10.0 mi NW 10.4 mph - N/A   Overcast
6:34 AM 1.4 °F -12.5 °F -2.2 °F 85% 29.86 in 10.0 mi NW 8.1 mph - N/A   Overcast
6:53 AM 1.4 °F -13.5 °F -2.2 °F 85% 29.86 in 10.0 mi NW 9.2 mph - N/A   Overcast
7:14 AM 1.4 °F -14.5 °F -2.2 °F 85% 29.86 in 10.0 mi NW 10.4 mph - N/A   Overcast
7:33 AM 1.4 °F -15.3 °F -2.2 °F 85% 29.84 in 10.0 mi NW 11.5 mph - N/A   Overcast
7:54 AM 1.4 °F -16.1 °F -2.2 °F 85% 29.83 in 10.0 mi NW 12.7 mph - N/A   Overcast
8:14 AM 1.4 °F -16.9 °F -2.2 °F 85% 29.83 in 10.0 mi NW 13.8 mph - N/A   Overcast
8:33 AM 1.4 °F -18.2 °F -2.2 °F 85% 29.82 in 7.0 mi NW 16.1 mph - N/A   Overcast
8:54 AM 3.2 °F -16.5 °F -2.2 °F 78% 29.81 in 10.0 mi NW 17.3 mph - N/A   Overcast
9:13 AM 3.2 °F -16.5 °F -2.2 °F 78% 29.81 in 10.0 mi NNW 17.3 mph - N/A   Overcast
9:33 AM 3.2 °F -15.9 °F -2.2 °F 78% 29.80 in 10.0 mi NNW 16.1 mph - N/A   Overcast
9:54 AM 3.2 °F -15.9 °F -0.4 °F 85% 29.80 in 10.0 mi NNW 16.1 mph - N/A   Overcast
10:13 AM 3.2 °F -15.9 °F -0.4 °F 85% 29.80 in 10.0 mi NNW 16.1 mph - N/A   Overcast
10:33 AM 3.2 °F -15.9 °F -0.4 °F 85% 29.79 in 10.0 mi NNW 16.1 mph - N/A   Overcast
10:54 AM 3.2 °F -14.6 °F -0.4 °F 85% 29.79 in 7.0 mi NNW 13.8 mph - N/A   Overcast
11:13 AM 3.2 °F -14.6 °F -0.4 °F 85% 29.79 in 3.0 mi NNW 13.8 mph - N/A Snow Light Snow
11:33 AM 5.0 °F -11.6 °F -0.4 °F 78% 29.78 in 3.0 mi NNW 12.7 mph - N/A Snow Light Snow
11:54 AM 5.0 °F -11.6 °F -0.4 °F 78% 29.78 in 3.0 mi NNW 12.7 mph - N/A Snow Light Snow
12:13 PM 6.8 °F -9.3 °F -0.4 °F 72% 29.77 in 3.0 mi NW 12.7 mph - N/A   Haze
12:34 PM 6.8 °F -8.6 °F -0.4 °F 72% 29.77 in 3.0 mi NW 11.5 mph - N/A   Haze
12:53 PM 6.8 °F -8.6 °F 1.4 °F 79% 29.77 in 3.0 mi NW 11.5 mph - N/A   Haze
1:13 PM 6.8 °F -8.6 °F 1.4 °F 79% 29.77 in 3.0 mi NW 11.5 mph - N/A   Haze
1:34 PM 6.8 °F -10.0 °F 1.4 °F 79% 29.76 in 2.5 mi NW 13.8 mph - N/A   Haze
1:53 PM 6.8 °F -10.0 °F 1.4 °F 79% 29.76 in 2.0 mi NW 13.8 mph - N/A   Haze
2:13 PM 6.8 °F -10.0 °F 1.4 °F 79% 29.75 in 3.0 mi NNW 13.8 mph - N/A   Haze
2:34 PM 6.8 °F -10.7 °F 1.4 °F 79% 29.75 in 4.0 mi NNW 15.0 mph - N/A   Haze
2:54 PM 6.8 °F -9.3 °F 1.4 °F 79% 29.75 in 4.0 mi NNW 12.7 mph - N/A   Haze
3:13 PM 6.8 °F -8.6 °F 1.4 °F 79% 29.75 in 3.0 mi NNW 11.5 mph - N/A   Haze
3:34 PM 6.8 °F -10.7 °F 1.4 °F 79% 29.75 in 2.0 mi NNW 15.0 mph - N/A   Haze
3:54 PM 6.8 °F -10.0 °F 1.4 °F 79% 29.75 in 2.5 mi NNW 13.8 mph - N/A   Haze
4:13 PM 6.8 °F -9.3 °F 1.4 °F 79% 29.75 in 2.5 mi NNW 12.7 mph - N/A   Haze
4:34 PM 6.8 °F -9.3 °F 1.4 °F 79% 29.76 in 2.5 mi NNW 12.7 mph - N/A Snow Light Snow
4:53 PM 6.8 °F -10.0 °F 1.4 °F 79% 29.76 in 2.5 mi NNW 13.8 mph - N/A   Haze
5:14 PM 6.8 °F -11.3 °F 1.4 °F 79% 29.76 in 2.0 mi NNW 16.1 mph - N/A   Haze
5:33 PM 6.8 °F -9.3 °F 1.4 °F 79% 29.76 in 4.0 mi NNW 12.7 mph - N/A   Haze
5:53 PM 6.8 °F -8.6 °F 1.4 °F 79% 29.76 in 5.0 mi NNW 11.5 mph - N/A   Haze
6:14 PM 6.8 °F -10.0 °F 1.4 °F 79% 29.77 in 7.0 mi NNW 13.8 mph - N/A   Overcast
6:33 PM 5.0 °F -11.6 °F 1.4 °F 85% 29.77 in 4.0 mi NW 12.7 mph - N/A Snow Light Snow
6:53 PM 3.2 °F -16.5 °F -0.4 °F 85% 29.77 in 5.0 mi NW 17.3 mph - N/A   Overcast
7:13 PM 3.2 °F -13.9 °F -0.4 °F 85% 29.77 in 5.0 mi NW 12.7 mph - N/A   Haze
7:33 PM 3.2 °F -16.5 °F -2.2 °F 78% 29.78 in 5.0 mi NW 17.3 mph - N/A   Haze
7:54 PM 1.4 °F -18.8 °F -2.2 °F 85% 29.78 in 5.0 mi NW 17.3 mph - N/A   Overcast
8:13 PM 1.4 °F -18.8 °F -2.2 °F 85% 29.78 in 7.0 mi NW 17.3 mph - N/A   Mostly Cloudy
8:34 PM -0.4 °F -21.7 °F -5.8 °F 78% 29.78 in 10.0 mi NW 18.4 mph - N/A   Scattered Clouds
8:53 PM -0.4 °F -21.7 °F -5.8 °F 78% 29.78 in 10.0 mi NW 18.4 mph - N/A   Scattered Clouds
9:13 PM -0.4 °F -20.5 °F -5.8 °F 78% 29.77 in 5.0 mi NW 16.1 mph - N/A Snow Light Snow
9:34 PM -0.4 °F -21.7 °F -5.8 °F 78% 29.78 in 3.0 mi NW 18.4 mph - N/A Snow Light Snow
9:53 PM -2.2 °F -24.1 °F -5.8 °F 85% 29.78 in 4.0 mi NW 18.4 mph - N/A Snow Light Snow
10:13 PM -2.2 °F -24.1 °F -5.8 °F 85% 29.78 in 4.0 mi NW 18.4 mph - N/A Snow Light Snow
10:34 PM -2.2 °F -22.9 °F -7.6 °F 78% 29.78 in 3.0 mi NW 16.1 mph - N/A Snow Light Snow
10:53 PM -2.2 °F -23.5 °F -7.6 °F 78% 29.78 in 3.0 mi NW 17.3 mph - N/A Snow Light Snow
11:14 PM -2.2 °F -23.5 °F -7.6 °F 78% 29.79 in 5.0 mi NW 17.3 mph - N/A Snow Light Snow
11:34 PM -2.2 °F -24.1 °F -7.6 °F 78% 29.79 in 4.0 mi NW 18.4 mph - N/A Snow Light Snow
11:53 PM -2.2 °F -24.1 °F -7.6 °F 78% 29.79 in 4.0 mi NW 18.4 mph - N/A   Haze